Find Starlink 34399

NORAD ID: 64444 Int'l Des: 2025-130 Owner: SPXS Country: US Constellation: starlink operational
LEOCIRCULAR

現在のビュー

3D地球を読み込み中...

Starlink 34399について

説明を読み込み中...

次回通過

Passes for default location (London). Set your location on the main map for personalized predictions.

高度履歴

Loading altitude history...

軌道要素

1 64444U 25130G 26149.02041963 .00017480 00000-0 52729-3 0 9998
2 64444 53.1597 74.5891 0001084 78.0545 282.0579 15.34399538 53012
Epoch: May 29, 2026 • Age: 27 hours

現在のステータス

高度 462.8 km
速度 7.64 km/s
衛星直下点 21.86°N, 151.36°E
打ち上げ日 Jun 18, 2025
運用期間 0.9 years
タイプ internet

技術仕様

分類 Payload
質量 575.00 kg
乾燥質量 530.00 kg
総質量 575.00 kg
長さ 0.30 m
直径 4.10 m
スパン 29.00 m
形状 Box + pan
製造者 SPXS
バスタイプ Starlink V2MO
フェーズステータス In Orbit
所有者/国 SPXS/US

Most Searched